Regional Weather Roundup
Issued by NWS

Home | Current Version | Previous Version | Text Only | Print | Product List | Glossary Off
Versions: 1 2 3 4 5 6 7 8 9 10 11 12 13 14 15 16 17 18 19 20 21 22 23 24 25 26 27 28 29 30 31 32 33 34 35 36 37 38 39 40 41 42 43 44 45 46 47 48 49 50

000
ASUS43 KLOT 271503
RWRIL

ILLINOIS REGIONAL WEATHER ROUNDUP
NATIONAL WEATHER SERVICE CHICAGO/ROMEOVILLE IL
1000 AM CDT SAT AUG 27 2016

NOTE: "FAIR" INDICATES FEW OR NO CLOUDS BELOW 12,000 FEET WITH NO
SIGNIFICANT WEATHER AND/OR OBSTRUCTIONS TO VISIBILITY.

* THESE STATIONS ARE NOT UNDER NWS QUALITY CONTROL. THEY ALSO MAY NOT
  REPORT WEATHER SUCH AS PRECIPITATION OR FOG.

ILZ001-002-007-009-015-016-024-271600-
NORTHWEST ILLINOIS

CITY           SKY/WX    TMP DP  RH WIND       PRES   REMARKS
MOLINE         PTSUNNY   76  69  79 SW12      30.02S
STERLING*      CLOUDY    73  71  93 VRB5      30.03F
SAVANNA*       CLOUDY    72  69  92 SE3       30.02F
$$

ILZ003-004-008-010-011-017-018-271600-
NORTH CENTRAL ILLINOIS

CITY           SKY/WX    TMP DP  RH WIND       PRES   REMARKS
ROCKFORD       CLOUDY    72  69  90 S6        30.04F
FREEPORT*      CLOUDY    70  67  92 CALM      30.05F
ROCHELLE*      CLOUDY    72  70  93 CALM      30.04F
$$

ILZ005-006-012>014-019>023-271600-
NORTHEAST ILLINOIS

CITY           SKY/WX    TMP DP  RH WIND       PRES   REMARKS
CHICAGO-OHARE  CLOUDY    72  70  93 SE5       30.04F
CHICAGO-MIDWAY CLOUDY    74  71  91 SE9       30.04F
AURORA         CLOUDY    75  72  90 SE8       30.04F
LANSING*       PTSUNNY   74  73  95 NE7       30.06F
JOLIET*        CLOUDY    74  73  98 S5        30.06R
WAUKEGAN       CLOUDY    71  69  93 S6        30.06R
DUPAGE AIRPORT CLOUDY    73  70  90 SE7       30.04F
KANKAKEE*      CLOUDY    75  72  91 SE10      30.07F
WHEELING       CLOUDY    72  70  93 S7        30.06F
MORRIS*        PTSUNNY   74  72  91 S3        30.04R
ROMEOVILLE*    CLOUDY    73  73 100 S5        30.06R
NORTHERLY ISL    N/A     71  69  93 S5          N/A
$$

LMZ740>746-271600-
SOUTHERN LAKE MICHIGAN

STATION/POSITION SKY/WX   TEMP    WIND        PRES    VSBY  WAVE
                          AIR SEA DIR/SP/G                  HT/PER
                          (F)     (DEG/KT/KT) (MB)    (MI)  (FT/S)
SOUTHERN BUOY              72 74  140/ 10/ 14 1017.5          2/ 4
WILMETTE HARBOR            70 69  160/  6/  8   N/A           2/ 5
HARRISON CRIB              72     140/ 15/ 16   N/A
BURNHAM HARBOR             72     120/  8/  8   N/A
CALUMET HARBOR             71     120/  5/  8 1018.0R
BURNS HARBOR               71     110/  7/ 13 1019.3F
MICHIGAN CITY              69      60/  9/ 10   N/A
MICHIGAN CITY 6N           71 75   90/ 12/ 14   N/A           1/ 4
ST. JOSEPH                 69 75   80/  4/  6 1019.6F         1
$$

ILZ025>027-034>036-040-047-049-050-058-095>099-271600-
WEST-CENTRAL ILLINOIS

CITY           SKY/WX    TMP DP  RH WIND       PRES   REMARKS
QUINCY         SUNNY     78  74  87 SW7       30.05S HX  81
GALESBURG*     PTSUNNY   75  71  89 SW10      30.04F
MACOMB*        CLOUDY    75  73  91 SW10      30.07S
JACKSONVILLE*  MOSUNNY   78  73  83 SW10      30.06S HX  81
PITTSFIELD*    MOSUNNY   77  74  89 S8        30.08S
$$

ILZ028>032-037-038-041>044-048-051>054-059>061-271600-
CENTRAL ILLINOIS

CITY           SKY/WX    TMP DP  RH WIND       PRES   REMARKS
PONTIAC        CLOUDY    76  75  95 SE5       30.07R
BLOOMINGTON    MOSUNNY   76  72  87 S9        30.09R
DECATUR        PTSUNNY   79  73  82 S6        30.08S HX  82
PEORIA         CLOUDY    73  73 100 S10       30.05S
LACON*           N/A     74  71  89 SW10      30.03S
LINCOLN*       CLOUDY    78  73  84 S6        30.07R HX  81
SPRINGFIELD    MOSUNNY   79  72  79 S8        30.07S HX  82
TAYLORVILLE    CLOUDY    76  74  91 S7        30.09R
$$

ILZ033-039-045-046-055>057-062-063-271600-
EAST-CENTRAL ILLINOIS

CITY           SKY/WX    TMP DP  RH WIND       PRES   REMARKS
CHAMPAIGN      MOSUNNY   77  72  84 S6        30.09S
RANTOUL*       PTSUNNY   79  75  87 S7        30.09R HX  82
MATTOON        SUNNY     78  71  79 SW5       30.11R HX  80
PARIS*         MOSUNNY   77  73  86 CALM      30.12R
$$

ILZ079-100>102-271600-
SOUTHWEST ILLINOIS

CITY           SKY/WX    TMP DP  RH WIND       PRES   REMARKS
ALTON          PTSUNNY   79  70  73 SW7       30.08S HX  81
BELLEVILLE     MOSUNNY   80  71  74 SW2       30.07S HX  84
CAHOKIA*       PTSUNNY   80  69  69 SW3       30.08S HX  83
SPARTA*        CLOUDY    77  73  85 CALM      30.10F
$$

ILZ064>066-069>071-074>076-080>082-084>086-088>090-092>094-271600-
SOUTH-CENTRAL ILLINOIS

CITY           SKY/WX    TMP DP  RH WIND       PRES   REMARKS
CARBONDALE     PTSUNNY   77  71  82 CALM      30.10S
EFFINGHAM*     SUNNY     79  74  86 SE5       30.12R HX  82
MARION         PTSUNNY   79  72  78 S5        30.11S HX  82
MT. VERNON     MOSUNNY   79  68  69 S3        30.12R HX  81
CENTRALIA*     SUNNY     80  74  82 CALM      30.09S HX  83
SALEM*         SUNNY     80  71  72 CALM      30.10S HX  84
METROPOLIS*    MOSUNNY   78  73  86 CALM      30.12R HX  80
$$

ILZ067-068-072-073-078-083-087-091-271600-
SOUTHEAST ILLINOIS

CITY           SKY/WX    TMP DP  RH WIND       PRES   REMARKS
LAWRENCEVILLE  CLOUDY    73  73 100 E3        30.13S
FLORA*         CLOUDY    82  72  72 CALM      30.11S HX  86
FAIRFIELD*     PTSUNNY   76  72  87 CALM      30.11S
HARRISBURG*    CLOUDY    76  73  91 CALM      30.12R
ROBINSON*      CLOUDY    73  72  97 CALM      30.14S
CARMI*         CLOUDY    76  73  90 E3        30.12R
$$

ABBREVIATIONS USED IN REMARKS
   TC - TEMPERATURE IN CELSIUS
  WCI - WIND CHILL INDEX
   HX - HEAT INDEX
  VSB - VISIBILITY
$$





USA.gov is the U.S. government's official web portal to all federal, state and local government web resources and services.